Regional Weather Roundup
Issued by NWS

Home | Current Version | Previous Version | Graphics & Text | Print | Product List | Glossary On
Versions: 1 2 3 4 5 6 7 8 9 10 11 12 13 14 15 16 17 18 19 20 21 22 23 24 25 26 27 28 29 30 31 32 33 34 35 36 37 38 39 40 41 42 43 44 45 46 47 48 49 50
000
ASUS43 KMPX 241401
RWRMN
WEATHER ROUNDUP FOR MINNESOTA
NATIONAL WEATHER SERVICE TWIN CITIES/CHANHASSEN MN
900 AM CDT TUE APR 24 2018


NOTE: "FAIR" INDICATES FEW OR NO CLOUDS BELOW 12,000 FEET WITH NO
SIGNIFICANT WEATHER AND/OR OBSTRUCTIONS TO VISIBILITY. N/A MEANS
CURRENT SKY AND/OR WEATHER CONDITIONS ARE NOT AVAILABLE.

MNZ060>063-068>070-241500-
   Twin Cities Metro

CITY           SKY/WX    TMP DP  RH WIND       PRES   REMARKS
TWIN CITIES    FAIR      58  42  55 NW5       30.13R
ST PAUL        FAIR      54  41  61 CALM      30.13S
CRYSTAL        FAIR      53  38  56 N6        30.13R
BLAINE         MOSUNNY   54  37  54 N9        30.14R
LAKEVILLE      FAIR      54  43  66 CALM      30.13R
EDEN PRAIRIE   FAIR      55  40  56 NW7       30.13R
SOUTH ST PAUL  FAIR      57  39  52 CALM      30.12S
LAKE ELMO      FAIR      52  41  66 CALM      30.13R
$$
MNZ001>005-007-008-013>017-022>024-027-028-241500-
   Northwest Minnesota

CITY           SKY/WX    TMP DP  RH WIND       PRES   REMARKS
BEMIDJI        FAIR      39  31  72 N9        30.31R
HALLOCK        FAIR      39  30  70 N10       30.39F
ROSEAU         FAIR      39  30  70 NW16      30.34F
WARROAD        FAIR      37  27  65 NW13G22   30.34S
THIEF RVR FALL FAIR      41  30  65 N13       30.37R
CROOKSTON      FAIR      41  36  81 N10       30.39R
FOSSTON        FAIR      39  34  81 N10       30.35R
DETROIT LAKES  LGT RAIN  41  37  87 N3        30.33S
MOORHEAD       FAIR      43  37  81 N10       30.36R
PARK RAPIDS    LGT RAIN  41  36  82 N9        30.30R
MAHNOMEN       CLOUDY    40  37  90 N9        30.33R
$$
MNZ006-009>011-018-025>026-241500-
   North Central Minnesota

CITY           SKY/WX    TMP DP  RH WIND       PRES   REMARKS
BAUDETTE       FAIR      36  26  67 NW15      30.32R
FLAG ISLAND    FAIR      34  23  64 N15       30.32S WCI  24
INTL FALLS     FAIR      42  29  59 NW13      30.27S
WASKISH        PTSUNNY   41  30  65 NW9       30.31S
BIG FORK       PTSUNNY   41  30  65 N6        30.28R
LONGVILLE      DRIZZLE   43  34  70 N6        30.27R
GRAND RAPIDS   LGT RAIN  41  30  65 N12       30.28R
CRANE LAKE     CLOUDY    37  30  75 CALM      30.28F
ORR            CLOUDY    39  27  60 NW5       30.24S
COOK           PTSUNNY   41  30  65 NW5       30.26R
WALKER         LGT RAIN  39  34  82 N7        30.30R
$$
MNZ012-019>021-037-241500-
   Northeast Minnesota

CITY           SKY/WX    TMP DP  RH WIND       PRES   REMARKS
DULUTH         CLOUDY    48  30  49 E10       30.21R
ELY            FAIR      41  28  60 CALM      30.23S
HIBBING        CLOUDY    42  28  57 N8        30.24R
EVELETH        FAIR      44  29  57 NE8       30.24S
DULUTH HARBOR  PTSUNNY   41  34  75 NE13      30.22S
TWO HARBORS    FAIR      52  36  54 E9        30.20R
SILVER BAY     FAIR      50  30  46 N6        30.20R
GRAND MARAIS     N/A     43  29  57 SW3       30.21S
G MARAIS ARPRT CLOUDY    39  25  56 N10       30.19S
$$
MNZ029>031-032-039>041-046>048-054>057-064-241500-
   West Central Minnesota

CITY           SKY/WX    TMP DP  RH WIND       PRES   REMARKS
FERGUS FALLS   LGT RAIN  41  37  87 NE12      30.30R
WHEATON        LGT RAIN  43  39  87 N21G26    30.32R
MORRIS         CLOUDY    46  37  71 N20       30.26R
ALEXANDRIA     CLOUDY    48  32  53 N16G28    30.27R
ELBOW LAKE     LGT RAIN  42  38  84 N16       30.30R
WADENA         LGT RAIN  41  36  81 N8        30.30R
GLENWOOD       FAIR      46  34  61 N17G24    30.25R
APPLETON       CLOUDY    48  37  66 N21G29    30.23R
BENSON         CLOUDY    46  36  66 NE16      30.25S
ORTONVILLE     CLOUDY    45  37  76 N25G32    30.26R
WILLMAR        FAIR      46  36  66 N13       30.24R
$$
MNZ033>034-036-042>043-049>051-058-059-241500-
   Central Minnesota

CITY           SKY/WX    TMP DP  RH WIND       PRES   REMARKS
ST CLOUD       CLOUDY    48  35  60 N14       30.19R
SAUK CENTRE    CLOUDY    45  32  60 N16G22    30.24R
PAYNESVILLE    PTSUNNY   48  36  61 N12       30.21R
AITKIN         FAIR      41  28  60 NW7       30.23R
PINE RIVER     FAIR      45  30  57 N7G20     30.30R
BRAINERD       CLOUDY    45  29  53 N14       30.25R
STAPLES        PTSUNNY   45  30  57 N13       30.28R
LONG PRAIRIE   PTSUNNY   43  32  65 NW14G20   30.25R
LITTLE FALLS   CLOUDY    46  23  39 N9G18     30.24R
LITCHFIELD     FAIR      50  37  62 N9        30.18R
BUFFALO        FAIR      51  33  51 N9        30.17R
MAPLE LAKE     FAIR      51  37  60 N9        30.18R
HUTCHINSON     PTSUNNY   51  38  60 N7        30.17R
$$
MNZ037-044-045-052-053-241500-
   East Central Minnesota

CITY           SKY/WX    TMP DP  RH WIND       PRES   REMARKS
PRINCETON      CLOUDY    54  34  47 N8        30.18R
MORA           FAIR      50  32  50 N5        30.20R
CAMBRIDGE      FAIR      54  36  50 N7        30.17R
RUSH CITY      PTSUNNY   51  33  49 NE7       30.17S
MOOSE LAKE     CLOUDY    50  30  46 N7        30.19R
HINCKLEY       PTSUNNY   52  32  46 N8        30.18R
CLOQUET        CLOUDY    48  27  43 N6        30.21R
MCGREGOR       CLOUDY    43  32  65 NW9       30.23R
$$
MNZ071>073-080-081-089-090-097-098-241500-
   Southwest Minnesota

CITY           SKY/WX    TMP DP  RH WIND       PRES   REMARKS
MONTEVIDEO     CLOUDY    46  39  76 NE18      30.22S
GRANITE FALLS  CLOUDY    48  40  74 NW15      30.22R
CANBY          CLOUDY    46  40  77 NW16G25   30.25R
MARSHALL       PTSUNNY   46  41  82 N17       30.21R
REDWOOD FALLS  CLOUDY    48  39  71 NW10      30.18R
OLIVIA         CLOUDY    46  39  76 N12       30.18S
PIPESTONE      CLOUDY   N/A N/A N/A NE13      30.20R
WINDOM         CLOUDY    50  32  50 NW9       30.17R
WORTHINGTON    CLOUDY    46  40  79 NW7       30.18R
JACKSON        PTSUNNY   48  39  71 NW8       30.17R
TRACY          MOSUNNY   46  42  85 NW14G20   30.20R
SLAYTON        CLOUDY    43  39  86 NW10      30.19R
$$
MNZ065>067-074>077-082>085-091>093-241500-
   South Central Minnesota

CITY           SKY/WX    TMP DP  RH WIND       PRES   REMARKS
MANKATO        FAIR      53  42  66 NW5       30.15R
NEW ULM        PTSUNNY   50  43  76 W6        30.15S
ST JAMES       PTSUNNY   52  43  71 NW8       30.17R
FAIRMONT       MOSUNNY   51  40  65 NW9       30.16S
GLENCOE        FAIR      51  40  67 N9        30.15R
OWATONNA       FAIR      52  45  76 CALM      30.13S
WASECA         FAIR      52  46  82 W5        30.16R
ALBERT LEA     FAIR      55  39  54 NW3       30.13S
$$
MNZ078>079-086>088-094>096-241500-
   Southeast Minnesota

CITY           SKY/WX    TMP DP  RH WIND       PRES   REMARKS
ROCHESTER      FAIR      56  43  61 N3        30.13S
RED WING       FAIR      50  36  57 CALM      30.11F
STANTON        FAIR      52  44  74 CALM      30.12S
DODGE CENTER   FAIR      55  43  62 N3        30.12S
WINONA         FAIR      48  36  61 CALM      30.11F
AUSTIN         FAIR      55  43  62 N5        30.12S
PRESTON        FAIR      54  40  58 N5        30.12F
$$
ABBREVIATIONS USED IN REMARKS
   TC - TEMPERATURES IN CELSIUS
  WCI - WIND CHILL INDEX
   HX - HEAT INDEX
  VSB - VISIBILITY
$$



USA.gov is the U.S. government's official web portal to all federal, state and local government web resources and services.